[[{"header":{"parameterUnit":"m.s-1","parameterCategory":1,"la1":30.2991,"la2":30.254,"lo1":-89.0895,"lo2":-89.0444,"dy":0.0017,"dx":0.0017,"nx":28,"ny":28,"refTime":"2025-07-27T21:00:00:Z","depth":0,"parameterNumber":2,"parameterNumberName":"U-component_of_WINDS"},"data":[0,0,0,0,0,0,0,0,0,0,0,0,0,0,0,0,0,0,0,0,0,0,0,0,0,0,0,0,0,0,0,0,0,0,0,0,0,0,0,0,0,0,0,0,0,0,0,0,0,0,0,0,0,0,0,0,0,0,1.5295,1.5293,0,1.5141,1.5139,1.5137,1.5014,1.5013,1.5012,1.5011,1.4849,1.4846,1.4843,0,0,0,0,0,0,0,0,0,0,0,0,0,1.5479,1.5477,1.5295,1.5293,1.5291,1.5141,1.5139,1.5137,1.5015,1.5013,1.5012,1.501,1.485,1.4846,1.4843,0,0,0,0,0,0,0,0,0,0,0,0,0,1.537,1.5476,1.5295,1.5212,1.5203,1.5142,1.5139,1.5136,1.5015,1.5013,1.5011,1.501,1.4851,1.4847,1.4842,1.485,0,0,1.4828,1.4826,0,0,0,0,0,0,0,0,1.5376,1.5363,1.5226,1.5218,1.5208,1.5095,1.5145,1.504,1.5015,1.5086,1.5011,1.5009,1.4932,1.4921,1.4896,1.4842,1.4835,1.4827,1.4824,1.4822,1.4821,0,0,0,0,0,0,0,1.5384,1.5369,1.5234,1.5225,1.5213,1.5181,1.5164,1.5124,1.5021,1.508,1.5071,1.5054,1.4927,1.4901,1.4891,1.4833,1.4827,1.4823,1.482,1.4818,1.4777,1.4779,0,0,0,0,0,0,1.5405,1.5376,1.5239,1.5229,1.5289,1.5179,1.516,1.5133,1.5021,1.5003,1.5056,1.5049,1.491,1.4897,1.4885,1.4887,1.4822,1.4818,1.4815,1.4775,1.4778,1.4779,0,0,0,0,0,0,1.5409,1.5394,1.5245,1.53,1.5279,1.5178,1.5149,1.5131,1.5105,1.5003,1.4984,1.5049,1.4908,1.4892,1.486,1.488,1.4816,1.4811,1.4773,1.4776,1.4778,1.4891,0,0,0,0,0,0,1.5415,1.5396,1.5399,1.5301,1.5276,1.5224,1.515,1.5129,1.5097,1.5087,1.4991,1.4974,1.4905,1.4867,1.4855,1.4872,1.4808,1.4771,1.4775,1.4778,1.4885,1.4897,1.4908,0,0,0,0,0,1.5422,1.5436,1.54,1.5384,1.5278,1.5226,1.5211,1.5133,1.51,1.5101,1.5036,1.4977,1.4879,1.4865,1.485,1.4866,1.477,1.4774,1.4777,1.488,1.4895,1.4907,0,0,0,0,0,0,1.5538,1.5422,1.538,1.5363,1.5305,1.5205,1.5205,1.5151,1.51,1.5093,1.4996,1.4976,1.4954,1.4906,1.4893,1.4867,1.4816,1.4818,1.49,1.4913,1.4924,1.4937,1.4804,0,0,0,0,0,1.5561,1.553,1.5429,1.5424,1.5397,1.5306,1.528,1.5225,1.5161,1.5135,1.5067,1.5006,1.4961,1.4934,1.4887,1.4877,1.4854,1.488,1.4891,1.4901,1.4904,1.4895,1.4905,1.4792,1.4792,1.4792,0,0,1.561,1.5542,1.5528,1.5445,1.5394,1.5362,1.5286,1.5256,1.5231,1.513,1.5097,1.5045,1.4969,1.4949,1.4936,1.4908,1.493,1.4906,1.4915,1.4912,1.49,1.4911,1.4921,1.4795,1.4795,1.4794,0,0,1.5682,1.5628,1.5618,1.5568,1.5491,1.5431,1.5429,1.5336,1.5298,1.5263,1.5187,1.5155,1.508,1.503,1.4995,1.5048,1.4992,1.5035,1.5094,1.5086,1.5095,1.5103,1.5123,1.5131,1.5037,1.5037,1.5038,0,1.5751,1.5702,1.5619,1.5593,1.5559,1.5467,1.5456,1.5411,1.5323,1.5301,1.5271,1.5175,1.5118,1.5084,1.5098,1.5071,1.5066,1.5046,1.5101,1.5108,1.5113,1.5131,1.5139,1.5043,1.5043,1.5042,1.5041,0,1.5792,1.5759,1.5759,1.5678,1.5644,1.5626,1.5538,1.5513,1.546,1.5403,1.5368,1.5296,1.5234,1.5221,1.5169,1.518,1.5165,1.5119,1.5067,1.5132,1.5147,1.5153,1.5052,1.505,1.5048,1.5046,0,0,1.5934,1.5807,1.5809,1.5771,1.568,1.5652,1.5629,1.5569,1.555,1.5491,1.5469,1.5408,1.5365,1.5325,1.5266,1.526,1.5307,1.5214,1.5211,1.5235,1.5316,1.5352,1.5362,1.5269,1.5269,1.527,1.5322,0,1.5993,1.5949,1.5873,1.5852,1.5821,1.5732,1.5711,1.5653,1.5598,1.5562,1.55,1.5459,1.5405,1.538,1.5369,1.5304,1.5322,1.5299,1.5247,1.5246,1.5271,1.5369,1.5408,1.5461,1.5328,1.5329,1.5329,0,1.6056,1.6005,1.5983,1.5894,1.5877,1.5861,1.58,1.5767,1.5697,1.5658,1.5614,1.5549,1.5519,1.547,1.5427,1.5413,1.5387,1.5351,1.5351,1.5345,1.5293,1.5367,1.5475,1.5485,1.5337,1.5337,1.5336,0,1.6165,1.6089,1.6066,1.6036,1.5932,1.5922,1.5878,1.5807,1.5776,1.5722,1.57,1.5643,1.5612,1.5568,1.549,1.5461,1.5455,1.54,1.5421,1.5424,1.5426,1.5427,1.5534,1.5406,1.5406,1.5406,1.5406,0,1.624,1.623,1.6114,1.61,1.6085,1.5997,1.5985,1.5932,1.5869,1.5843,1.5761,1.5737,1.5634,1.5598,1.5536,1.551,1.5496,1.5463,1.5447,1.5471,1.5476,1.5454,1.5449,1.5408,1.5408,1.5407,1.5407,0,1.636,1.6281,1.625,1.6154,1.6129,1.6123,1.604,1.6022,1.5962,1.5929,1.5916,1.5821,1.5774,1.5691,1.562,1.5578,1.5566,1.5537,1.559,1.558,1.5607,1.5607,1.5705,1.5714,1.5581,1.5582,1.5583,0,1.6414,1.6404,1.6307,1.6284,1.6243,1.6207,1.6175,1.6086,1.6056,1.5977,1.5969,1.5916,1.5869,1.5798,1.5722,1.5667,1.5637,1.5675,1.5628,1.5654,1.564,1.5642,1.5641,1.5687,1.5689,1.569,1.5692,0,1.6519,1.6481,1.6439,1.6383,1.6348,1.6299,1.6246,1.6232,1.6131,1.6101,1.6053,1.6017,1.5945,1.5893,1.5828,1.578,1.5719,1.5707,1.5709,1.5735,1.5767,1.5752,1.5621,1.5705,1.5704,1.5703,1.5702,1.5702,1.6608,1.6596,1.6526,1.6482,1.6433,1.6385,1.6364,1.6302,1.6261,1.6197,1.6146,1.6102,1.6031,1.5937,1.5893,1.5856,1.5828,1.5831,1.5832,1.5835,1.5846,1.5772,1.5844,1.5843,1.5843,1.5842,1.5842,0,1.6711,1.6661,1.6621,1.6551,1.6516,1.6462,1.6401,1.6375,1.6338,1.6278,1.6234,1.6179,1.6128,1.6048,1.599,1.5977,1.5947,1.5965,1.5966,1.5956,1.5873,1.5878,1.5989,1.5989,1.5989,1.5989,1.5989,1.5989,1.676,1.6737,1.669,1.6641,1.659,1.6549,1.6518,1.6474,1.6425,1.6368,1.6326,1.6274,1.6206,1.6143,1.6094,1.6071,1.6055,1.6081,1.605,1.5975,1.5962,1.5949,1.5952,1.6078,1.6078,1.6136,1.6137,1.6137]},{"header":{"parameterUnit":"m.s-1","parameterCategory":1,"la1":30.2991,"la2":30.254,"lo1":-89.0895,"lo2":-89.0444,"dy":0.0017,"dx":0.0017,"nx":28,"ny":28,"refTime":"2025-07-27T21:00:00:Z","depth":0,"parameterNumber":3,"parameterNumberName":"V-component_of_WINDS"},"data":[0,0,0,0,0,0,0,0,0,0,0,0,0,0,0,0,0,0,0,0,0,0,0,0,0,0,0,0,0,0,0,0,0,0,0,0,0,0,0,0,0,0,0,0,0,0,0,0,0,0,0,0,0,0,0,0,0,0,-1.8246,-1.8245,0,-1.8211,-1.821,-1.821,-1.8141,-1.814,-1.8139,-1.8138,-1.8103,-1.8103,-1.8104,0,0,0,0,0,0,0,0,0,0,0,0,0,-1.8256,-1.8256,-1.8246,-1.8245,-1.8245,-1.8211,-1.821,-1.821,-1.8142,-1.814,-1.8138,-1.8137,-1.8103,-1.8103,-1.8104,0,0,0,0,0,0,0,0,0,0,0,0,0,-1.8239,-1.8256,-1.8246,-1.8207,-1.8203,-1.8211,-1.821,-1.8209,-1.8142,-1.814,-1.8138,-1.8136,-1.8103,-1.8103,-1.8104,-1.8147,0,0,-1.8105,-1.8105,0,0,0,0,0,0,0,0,-1.8241,-1.8239,-1.8213,-1.821,-1.8205,-1.8178,-1.8201,-1.8189,-1.8143,-1.8165,-1.8137,-1.8135,-1.813,-1.8128,-1.8126,-1.8145,-1.8144,-1.8105,-1.8106,-1.8106,-1.8106,0,0,0,0,0,0,0,-1.8242,-1.824,-1.8232,-1.8213,-1.8208,-1.8192,-1.8187,-1.8198,-1.8159,-1.8163,-1.8158,-1.8155,-1.8127,-1.8125,-1.8124,-1.8143,-1.8105,-1.8106,-1.8106,-1.8106,-1.8198,-1.82,0,0,0,0,0,0,-1.8248,-1.8242,-1.8233,-1.8231,-1.8218,-1.8193,-1.8188,-1.8189,-1.8159,-1.8152,-1.8157,-1.8152,-1.8126,-1.8124,-1.8123,-1.8172,-1.8106,-1.8106,-1.8107,-1.8196,-1.8198,-1.8201,0,0,0,0,0,0,-1.8249,-1.8248,-1.8234,-1.8235,-1.8232,-1.8195,-1.8197,-1.8189,-1.8187,-1.8154,-1.8147,-1.8162,-1.8124,-1.8122,-1.8142,-1.817,-1.8106,-1.8107,-1.8193,-1.8197,-1.8199,-1.8271,0,0,0,0,0,0,-1.8249,-1.8249,-1.8264,-1.8236,-1.8232,-1.8253,-1.8199,-1.819,-1.8188,-1.8182,-1.8157,-1.8151,-1.8122,-1.8141,-1.8142,-1.817,-1.8107,-1.819,-1.8195,-1.8198,-1.8266,-1.8277,-1.8286,0,0,0,0,0,-1.825,-1.8286,-1.8266,-1.8265,-1.8251,-1.8255,-1.8253,-1.8219,-1.8191,-1.8207,-1.8185,-1.8152,-1.8167,-1.8144,-1.8144,-1.8172,-1.8189,-1.8194,-1.8198,-1.8262,-1.8275,-1.8285,0,0,0,0,0,0,-1.832,-1.8282,-1.8258,-1.8286,-1.8274,-1.8244,-1.8262,-1.8233,-1.8229,-1.8224,-1.8182,-1.8177,-1.8202,-1.8189,-1.8164,-1.8213,-1.8172,-1.8178,-1.8221,-1.8233,-1.8242,-1.8245,-1.8108,0,0,0,0,0,-1.8338,-1.8344,-1.8311,-1.8339,-1.8334,-1.83,-1.83,-1.8275,-1.8261,-1.8256,-1.8236,-1.8224,-1.8226,-1.8229,-1.8229,-1.8264,-1.8258,-1.8284,-1.8293,-1.8301,-1.8306,-1.8325,-1.8336,-1.8216,-1.8216,-1.8216,0,0,-1.8377,-1.8357,-1.8363,-1.8352,-1.834,-1.8348,-1.8296,-1.8306,-1.8312,-1.8257,-1.8275,-1.826,-1.8244,-1.8272,-1.8283,-1.8262,-1.8338,-1.8307,-1.8314,-1.8315,-1.8331,-1.8343,-1.8353,-1.822,-1.8219,-1.8219,0,0,-1.8451,-1.8436,-1.8458,-1.8447,-1.8429,-1.8406,-1.8411,-1.8385,-1.8373,-1.8389,-1.8349,-1.8355,-1.836,-1.835,-1.8346,-1.8418,-1.8388,-1.8419,-1.847,-1.8488,-1.8498,-1.8506,-1.8533,-1.8543,-1.8424,-1.8425,-1.8425,0,-1.8501,-1.8511,-1.8473,-1.8486,-1.8483,-1.8434,-1.8456,-1.8447,-1.8431,-1.843,-1.8407,-1.8412,-1.8397,-1.8423,-1.8441,-1.8439,-1.8444,-1.8422,-1.85,-1.8507,-1.8514,-1.8539,-1.8549,-1.8429,-1.8428,-1.8428,-1.8427,0,-1.8574,-1.8582,-1.8602,-1.8587,-1.8586,-1.8604,-1.8569,-1.8573,-1.8548,-1.8528,-1.8546,-1.8527,-1.8523,-1.8527,-1.8502,-1.8549,-1.8537,-1.8507,-1.8465,-1.8531,-1.8553,-1.8562,-1.8434,-1.8433,-1.8432,-1.8431,0,0,-1.8691,-1.8655,-1.8663,-1.8656,-1.8633,-1.8639,-1.8655,-1.865,-1.8655,-1.8645,-1.8658,-1.8663,-1.8636,-1.8631,-1.8605,-1.8622,-1.8681,-1.859,-1.8589,-1.8608,-1.8733,-1.8756,-1.8768,-1.866,-1.8662,-1.8663,-1.8734,0,-1.8761,-1.8786,-1.8753,-1.8785,-1.8792,-1.8746,-1.876,-1.8748,-1.8729,-1.8733,-1.8713,-1.8718,-1.868,-1.8677,-1.8691,-1.8671,-1.8706,-1.8665,-1.8673,-1.8674,-1.8679,-1.8779,-1.8804,-1.8871,-1.8743,-1.8744,-1.8745,0,-1.8846,-1.884,-1.8874,-1.8849,-1.8851,-1.8864,-1.8858,-1.8861,-1.8847,-1.8833,-1.8828,-1.8797,-1.8812,-1.8772,-1.8792,-1.8765,-1.8767,-1.8757,-1.8759,-1.8759,-1.8714,-1.8783,-1.8892,-1.8903,-1.8759,-1.8758,-1.8757,0,-1.8929,-1.893,-1.895,-1.8945,-1.8917,-1.8928,-1.8916,-1.89,-1.89,-1.8894,-1.8894,-1.8891,-1.8889,-1.8888,-1.8858,-1.883,-1.8882,-1.8839,-1.8872,-1.8873,-1.8885,-1.8885,-1.8997,-1.8885,-1.8885,-1.8884,-1.8884,0,-1.9011,-1.9034,-1.8987,-1.9,-1.9024,-1.8985,-1.9011,-1.8995,-1.8981,-1.899,-1.8949,-1.8959,-1.8918,-1.8924,-1.89,-1.8921,-1.8921,-1.891,-1.8904,-1.8914,-1.8916,-1.8915,-1.891,-1.8887,-1.8886,-1.8886,-1.8885,0,-1.9109,-1.9078,-1.9097,-1.9069,-1.9062,-1.9082,-1.9058,-1.9069,-1.9047,-1.906,-1.9061,-1.9028,-1.9033,-1.9002,-1.9001,-1.8985,-1.9018,-1.9003,-1.9023,-1.9019,-1.9054,-1.9051,-1.917,-1.9184,-1.9062,-1.9063,-1.9064,0,-1.9163,-1.918,-1.9153,-1.9156,-1.9147,-1.9152,-1.9152,-1.9115,-1.9116,-1.9102,-1.9115,-1.9116,-1.9115,-1.9124,-1.9101,-1.91,-1.9086,-1.9127,-1.9085,-1.9096,-1.9088,-1.9088,-1.909,-1.9137,-1.9138,-1.9139,-1.914,0,-1.9264,-1.9248,-1.9249,-1.9245,-1.9245,-1.924,-1.9232,-1.9238,-1.9198,-1.9201,-1.9205,-1.9205,-1.9204,-1.9206,-1.92,-1.919,-1.9159,-1.9154,-1.9161,-1.9173,-1.9184,-1.918,-1.9048,-1.9151,-1.915,-1.9149,-1.9149,-1.9148,-1.9342,-1.9355,-1.9338,-1.9341,-1.9331,-1.9325,-1.9334,-1.9314,-1.9317,-1.9313,-1.9291,-1.9299,-1.9285,-1.9275,-1.9267,-1.9274,-1.9254,-1.9265,-1.9268,-1.9271,-1.9278,-1.9182,-1.9272,-1.9272,-1.9272,-1.9271,-1.9271,0,-1.9442,-1.9429,-1.9431,-1.9422,-1.9424,-1.9394,-1.9384,-1.9388,-1.9396,-1.9385,-1.9385,-1.939,-1.9392,-1.9369,-1.9369,-1.9378,-1.9365,-1.938,-1.9379,-1.9377,-1.9295,-1.9289,-1.9391,-1.9391,-1.9391,-1.9391,-1.9391,-1.9391,-1.9494,-1.9514,-1.9496,-1.9511,-1.9498,-1.9506,-1.9503,-1.9498,-1.9489,-1.9496,-1.9498,-1.9482,-1.9467,-1.9465,-1.9466,-1.9459,-1.9461,-1.9482,-1.947,-1.9394,-1.9383,-1.9372,-1.9366,-1.9482,-1.9482,-1.9552,-1.9552,-1.9553]}]]